Home   Weather   Perth   Past weeks
Flag for Australia

Past Weather in Perth, Western Australia, Australia — Yesterday and Last 2 Weeks

Now
45 °F

Passing clouds.


Feels Like: 42 °F
Forecast: 66 / 52 °F
Wind: 5 mph from Northeast

Location: Belmont Perth Airport

Current Time: Jul 24, 2019 at 2:22:00 am

Latest Report: Jul 24, 2019 at 2:00 am


Visibility: N/A

Pressure: 30.24 "Hg

Humidity: 100%

Dew Point: 45 °F

Location of PerthLocation

Past Weather in Perth — Graph

°F

Perth Temperature Yesterday

Maximum temperature yesterday: 66 °F (at 2:30 pm)
Minimum temperature yesterday: 43 °F (at 5:30 am)
Average temperature yesterday: 53 °F

High & Low Weather Summary for the Past Weeks

 TemperatureHumidityPressure
High72 °F (Jul 17, 1:00 pm)100% (Jul 9, 1:00 am)30.54 "Hg (Jul 9, 1:00 am)
Low41 °F (Jul 12, 3:00 am)29% (Jul 17, 2:00 pm)29.68 "Hg (Jul 19, 2:30 pm)
Average56 °F78%30.23 "Hg
* Reported Jul 9 1:00 am — Jul 24 1:00 am, Perth. Weather by CustomWeather, © 2019

Note: Actual official high and low records may vary slightly from our data, if they occured in-between our weather recording intervals... More about our weather records

Advertising

Perth Weather History for the Previous 24 Hours

Scroll right to see more
 ConditionsComfort  
Time TempWeatherWind HumidityBarometerVisibility
1:00 am
Wed, Jul 24
48 °FPassing clouds.5 mph100%30.24 "HgN/A
12:30 am46 °FPassing clouds.5 mph93%30.27 "HgN/A
12:00 am46 °FPassing clouds.2 mph100%30.27 "HgN/A
11:30 pm
Tue, Jul 23
46 °FPassing clouds.No wind100%30.27 "HgN/A
11:00 pm46 °FPassing clouds.No wind100%30.27 "HgN/A
10:30 pm48 °FPassing clouds.No wind94%30.27 "HgN/A
10:00 pm48 °FPassing clouds.No wind94%30.27 "HgN/A
9:30 pm50 °FPassing clouds.3 mph94%30.27 "HgN/A
9:00 pm50 °FPassing clouds.6 mph94%30.27 "HgN/A
8:30 pm52 °FPassing clouds.5 mph94%30.27 "HgN/A
8:00 pm52 °FPassing clouds.6 mph94%30.27 "HgN/A
7:30 pm54 °FPassing clouds.5 mph94%30.27 "HgN/A
7:00 pm55 °FPassing clouds.5 mph88%30.27 "HgN/A
6:30 pm57 °FPassing clouds.6 mph88%30.27 "HgN/A
6:00 pm61 °FPassing clouds.8 mph83%30.24 "HgN/A
5:30 pm61 °FPassing clouds.9 mph77%30.24 "HgN/A
5:00 pm63 °FPartly sunny.8 mph73%30.24 "HgN/A
4:30 pm64 °FScattered clouds.7 mph68%30.24 "HgN/A
4:00 pm64 °FScattered clouds.8 mph68%30.24 "HgN/A
3:30 pm64 °FBroken clouds.8 mph68%30.24 "HgN/A
3:00 pm64 °FPartly sunny.9 mph64%30.24 "HgN/A
2:30 pm66 °FPartly sunny.6 mph64%30.24 "HgN/A
2:00 pm64 °FBroken clouds.2 mph68%30.24 "HgN/A
1:30 pm64 °FBroken clouds.3 mph68%30.24 "HgN/A
1:00 pm64 °FPartly sunny.5 mph68%30.24 "HgN/A
12:00 pm63 °FPartly sunny.3 mph68%30.27 "HgN/A
11:00 am63 °FPassing clouds.5 mph68%30.30 "HgN/A
10:00 am57 °FPassing clouds.6 mph77%30.30 "HgN/A
9:00 am52 °FPassing clouds.5 mph88%30.30 "HgN/A
8:00 am48 °FPassing clouds.6 mph94%30.27 "HgN/A
7:30 am46 °FPassing clouds.6 mph93%30.27 "HgN/A
7:00 am45 °FPassing clouds.6 mph100%30.24 "HgN/A
6:30 am45 °FPassing clouds.7 mph100%30.24 "HgN/A
6:00 am45 °FPassing clouds.6 mph100%30.24 "HgN/A
5:30 am43 °FPassing clouds.6 mph100%30.24 "HgN/A
5:00 am45 °FPassing clouds.3 mph93%30.24 "HgN/A
4:30 am45 °FClear.No wind100%30.21 "Hg10 mi
4:00 am45 °FPassing clouds.5 mph100%30.21 "HgN/A
3:30 am46 °FPassing clouds.6 mph93%30.21 "HgN/A
3:00 am46 °FClear.3 mph93%30.21 "Hg10 mi
2:30 am48 °FPassing clouds.6 mph94%30.21 "HgN/A
2:00 am50 °FPassing clouds.6 mph94%30.21 "HgN/A
Weather by CustomWeather, © 2019

See weather overview